Regional Weather Roundup
Issued by NWS

Home | Current Version | Previous Version | Text Only | Print | Product List | Glossary Off
Versions: 1 2 3 4 5 6 7 8 9 10 11 12 13 14 15 16 17 18 19 20 21 22 23 24 25 26 27

000
ASUS45 KSLC 221910
RWRUT

UTAH REGIONAL WEATHER ROUNDUP
NATIONAL WEATHER SERVICE SALT LAKE CITY UT
1200 PM MST WED FEB 22 2017

UTZ001>011-023>025-222000-

NORTHERN UTAH

CITY           SKY/WX    TMP DP  RH WIND       PRES   REMARKS
BRIGHAM CITY     N/A     40  32  73 CALM      29.95F
DUGWAY         DRIZZLE   37  34  87 NW1       29.94F
HILL AFB       CLOUDY    38  28  65 CALM      29.93F
LOGAN          NOT AVBL
OGDEN          CLOUDY    39  29  67 S3        29.93F
SALT LAKE CITY CLOUDY    40  34  79 S10       29.94F WCI  33
TOOELE VALLEY  CLOUDY    39  34  81 S10       29.94F WCI  32
WENDOVER       CLOUDY    39  28  65 CALM      29.93F
WEST JORDAN    CLOUDY    40  40 100 SE13      29.94F WCI  32

$$

UTZ011>015-024>027-222000-

CENTRAL/NORTHEAST UTAH

CITY           SKY/WX    TMP DP  RH WIND       PRES   REMARKS
PROVO AIRPORT  CLOUDY    36  34  92 SE3       29.95F FOG
DELTA          PTSUNNY   43  32  65 SE3       29.92F
PRICE          CLOUDY    48  30  49 CALM      29.86F
RICHFIELD      MOSUNNY   54  25  32 SW9G15    29.86F
ROOSEVELT      CLOUDY    41  32  70 E8        29.93F
VERNAL         CLOUDY    38  35  89 MISG      29.92F

$$

UTZ013>016-019>022-027-222000-

SOUTHERN UTAH

CITY           SKY/WX    TMP DP  RH WIND       PRES   REMARKS
BRYCE CANYON   SUNNY     40  22  48 SW21      29.95F WCI  30
CEDAR CITY     SUNNY     52  24  33 SW23G35   29.89F
MILFORD        PTSUNNY   48  35  60 VRB5      29.88F
ST GEORGE      CLOUDY    61  37  41 W10       29.91F
HANKSVILLE     SUNNY     61  28  29 SW17G29   29.87F
KANAB          MOSUNNY   59  30  33 S20G31    29.96F
BLANDING       SUNNY     55  30  38 S15G23    30.03F

$$

REGIONAL REPORTS     COLORADO/ARIZONA

CITY           SKY/WX    TMP DP  RH WIND       PRES   REMARKS
CRAIG, CO      CLOUDY    36  28  73 NE5       29.92F WCI  32
GRAND JUNCTION MOSUNNY   56  31  38 VRB7      29.87F
RIFLE, CO      MOSUNNY   58  25  28 SW15G26   29.85F
MONTROSE, CO   CLOUDY    54  25  32 SW9G22    29.92F
CORTEZ, CO     CLOUDY    57  31  37 SW17G28   29.99F
COLORADO CITY    N/A     59  30  33 W10G16    29.96F
PAGE, AZ       MOSUNNY   58  33  39 VRB3      29.89F
GRAND CANYON   PTSUNNY   50  31  48 SW22G31   30.03F
KINGMAN, AZ    SUNNY     67   3   8 SW28G35   29.97F
FLAGSTAFF, AZ  PTSUNNY   48  38  68 SW20G28   30.09F

$$

REGIONAL REPORTS    NEVADA/IDAHO/WYOMING

CITY           SKY/WX    TMP DP  RH WIND       PRES   REMARKS
LAS VEGAS, NV  MOSUNNY   61  25  25 SW17G29   29.91F
ELY, NY        CLOUDY    30  27  88 SW3       29.92F
ELKO, NV       CLOUDY    34  26  72 SW18      29.93F WCI  23
POCATELLO, ID  MOSUNNY   40  25  55 NW7       29.94F
FORT BRIDGER,  CLOUDY    30  28  92 NW5       29.94F WCI  26
EVANSTON, WY   FLURRIES  30  23  75 CALM      29.90F
ROCK SPRINGS,  CLOUDY    29  24  82 SW5       29.92F WCI  24
KEMMERER, WY     N/A     32  23  69 NW3       29.91S

$$




USA.gov is the U.S. government's official web portal to all federal, state and local government web resources and services.